contact: severine.martini@mio.osupytheas.fr, dominique.lefevre@mio.osupytheas.fr
Project:EMSO Ligure-ouest http://www.emso-fr.org/EMSO-France
Sensor Optode, line 4330 Serial 272 
DOI : "https://doi.org/10.17882/97948" 
Title:EMSO Ligure Ouest : Data BathyDock capteur Optode - deploiement "2023-04-28"
Datetime,Profondeur,Latitude,Longitude,optode_type,serial,O2_concentration,O2_saturation,Temperature,Calibrated_Phase,Temp_Compensated_Phase,phase_blue_light,phase_red_light,Amplitude_blue_light,Amplitude_red_light,thermistor_bridge
time,m,degree_north,degree_east,1,1,umol.l-1,%,degree_C,degree,degree,degree,degree,mV,mV,mV
2023-12-31T00:00:08,2420,42.8014,5.9826,4330,272,186.397,57.093,13.314,36.042,36.622,41.208,4.586,295.9,545.3,291.1
2023-12-31T00:03:07,2420,42.8014,5.9826,4330,272,186.377,57.087,13.314,36.044,36.624,41.212,4.588,295.9,545.4,291.1
2023-12-31T00:06:08,2420,42.8014,5.9826,4330,272,186.573,57.145,13.312,36.031,36.611,41.200,4.588,295.8,545.4,291.2
2023-12-31T00:09:07,2420,42.8014,5.9826,4330,272,186.387,57.089,13.313,36.044,36.624,41.203,4.579,295.8,545.2,291.1
2023-12-31T00:12:07,2420,42.8014,5.9826,4330,272,186.314,57.067,13.313,36.048,36.628,41.214,4.587,295.8,545.3,291.1
2023-12-31T00:15:08,2420,42.8014,5.9826,4330,272,186.635,57.163,13.312,36.027,36.607,41.201,4.594,295.9,545.4,291.2
2023-12-31T00:18:08,2420,42.8014,5.9826,4330,272,186.171,57.023,13.313,36.057,36.637,41.222,4.585,295.8,545.4,291.1
2023-12-31T00:21:07,2420,42.8014,5.9826,4330,272,186.504,57.128,13.315,36.034,36.614,41.199,4.585,295.8,545.3,291.1
2023-12-31T00:24:07,2420,42.8014,5.9826,4330,272,186.454,57.110,13.313,36.039,36.619,41.207,4.587,295.9,545.4,291.1
2023-12-31T00:27:08,2420,42.8014,5.9826,4330,272,186.301,57.063,13.313,36.049,36.629,41.214,4.586,295.8,545.3,291.1
2023-12-31T00:30:08,2420,42.8014,5.9826,4330,272,186.347,57.077,13.313,36.045,36.625,41.213,4.588,295.8,545.4,291.1
2023-12-31T00:33:07,2420,42.8014,5.9826,4330,272,186.627,57.161,13.312,36.028,36.608,41.200,4.592,295.8,545.4,291.2
2023-12-31T00:36:08,2420,42.8014,5.9826,4330,272,186.380,57.085,13.311,36.045,36.625,41.209,4.585,295.8,545.3,291.2
2023-12-31T00:39:07,2420,42.8014,5.9826,4330,272,186.256,57.045,13.310,36.053,36.633,41.213,4.580,295.8,545.4,291.2
2023-12-31T00:42:07,2420,42.8014,5.9826,4330,272,186.384,57.086,13.311,36.044,36.624,41.211,4.586,295.7,545.3,291.2
2023-12-31T00:45:07,2420,42.8014,5.9826,4330,272,186.454,57.109,13.313,36.039,36.619,41.202,4.583,295.8,545.3,291.1
2023-12-31T00:48:08,2420,42.8014,5.9826,4330,272,186.396,57.090,13.311,36.043,36.623,41.208,4.585,295.8,545.3,291.2
2023-12-31T00:51:07,2420,42.8014,5.9826,4330,272,186.430,57.098,13.310,36.042,36.622,41.213,4.591,295.7,545.4,291.2
2023-12-31T00:54:07,2420,42.8014,5.9826,4330,272,186.309,57.065,13.313,36.048,36.628,41.215,4.587,295.8,545.3,291.1
2023-12-31T00:57:08,2420,42.8014,5.9826,4330,272,186.428,57.101,13.313,36.040,36.620,41.202,4.581,295.9,545.3,291.1
2023-12-31T01:00:07,2420,42.8014,5.9826,4330,272,186.310,57.064,13.312,36.048,36.628,41.214,4.586,295.8,545.3,291.2
2023-12-31T01:03:08,2420,42.8014,5.9826,4330,272,186.471,57.118,13.316,36.036,36.617,41.206,4.589,295.8,545.5,291.0
2023-12-31T01:06:08,2420,42.8014,5.9826,4330,272,186.245,57.043,13.311,36.053,36.633,41.219,4.586,295.8,545.3,291.2
2023-12-31T01:09:07,2420,42.8014,5.9826,4330,272,186.267,57.050,13.311,36.052,36.632,41.219,4.587,295.8,545.4,291.2
2023-12-31T01:12:07,2420,42.8014,5.9826,4330,272,186.415,57.095,13.311,36.043,36.623,41.213,4.590,295.8,545.4,291.2
2023-12-31T01:15:07,2420,42.8014,5.9826,4330,272,186.622,57.157,13.310,36.029,36.609,41.200,4.591,295.8,545.3,291.2
2023-12-31T01:18:08,2420,42.8014,5.9826,4330,272,186.106,56.999,13.310,36.063,36.643,41.227,4.584,295.7,545.4,291.2
2023-12-31T01:21:07,2420,42.8014,5.9826,4330,272,186.572,57.142,13.311,36.032,36.612,41.200,4.587,295.7,545.3,291.2
2023-12-31T01:24:08,2420,42.8014,5.9826,4330,272,186.321,57.066,13.310,36.049,36.629,41.213,4.585,295.9,545.4,291.2
2023-12-31T01:27:07,2420,42.8014,5.9826,4330,272,186.334,57.073,13.313,36.046,36.626,41.212,4.586,295.7,545.3,291.1
2023-12-31T01:30:08,2420,42.8014,5.9826,4330,272,186.578,57.146,13.312,36.031,36.611,41.198,4.587,295.9,545.4,291.2
2023-12-31T01:33:08,2420,42.8014,5.9826,4330,272,186.536,57.130,13.310,36.035,36.615,41.206,4.592,295.8,545.4,291.2
2023-12-31T01:36:07,2420,42.8014,5.9826,4330,272,186.390,57.084,13.308,36.045,36.625,41.210,4.585,295.9,545.4,291.3
2023-12-31T01:39:08,2420,42.8014,5.9826,4330,272,186.239,57.040,13.310,36.054,36.634,41.218,4.584,295.8,545.4,291.2
2023-12-31T01:42:08,2420,42.8014,5.9826,4330,272,186.428,57.097,13.309,36.042,36.622,41.211,4.589,295.8,545.3,291.2
2023-12-31T01:45:07,2420,42.8014,5.9826,4330,272,186.320,57.065,13.310,36.049,36.629,41.216,4.587,295.7,545.4,291.2
2023-12-31T01:48:08,2420,42.8014,5.9826,4330,272,186.636,57.161,13.310,36.028,36.608,41.198,4.590,295.8,545.4,291.2
2023-12-31T01:51:07,2420,42.8014,5.9826,4330,272,186.650,57.168,13.312,36.026,36.607,41.200,4.593,295.8,545.4,291.2
2023-12-31T01:54:08,2420,42.8014,5.9826,4330,272,186.458,57.106,13.310,36.040,36.620,41.205,4.586,295.8,545.3,291.2
2023-12-31T01:57:08,2420,42.8014,5.9826,4330,272,186.231,57.039,13.311,36.054,36.634,41.218,4.585,295.8,545.5,291.2
2023-12-31T02:00:07,2420,42.8014,5.9826,4330,272,186.305,57.061,13.311,36.049,36.629,41.221,4.592,295.8,545.4,291.2
2023-12-31T02:03:08,2420,42.8014,5.9826,4330,272,186.287,57.055,13.310,36.051,36.631,41.219,4.588,295.8,545.3,291.2
2023-12-31T02:06:07,2420,42.8014,5.9826,4330,272,186.093,56.998,13.312,36.063,36.643,41.233,4.591,295.8,545.4,291.2
2023-12-31T02:09:07,2420,42.8014,5.9826,4330,272,186.251,57.045,13.311,36.052,36.632,41.214,4.581,295.8,545.4,291.2
2023-12-31T02:12:08,2420,42.8014,5.9826,4330,272,186.469,57.110,13.310,36.040,36.620,41.202,4.582,295.7,545.4,291.2
2023-12-31T02:15:08,2420,42.8014,5.9826,4330,272,186.548,57.134,13.310,36.034,36.614,41.205,4.591,295.7,545.4,291.2
2023-12-31T02:18:07,2420,42.8014,5.9826,4330,272,186.392,57.087,13.311,36.044,36.624,41.211,4.586,295.8,545.4,291.2
2023-12-31T02:21:07,2420,42.8014,5.9826,4330,272,186.260,57.049,13.312,36.052,36.632,41.214,4.582,295.7,545.4,291.2
2023-12-31T02:24:07,2420,42.8014,5.9826,4330,272,186.745,57.193,13.309,36.022,36.602,41.193,4.590,295.9,545.4,291.3
2023-12-31T02:27:08,2420,42.8014,5.9826,4330,272,186.361,57.074,13.308,36.048,36.628,41.216,4.588,295.7,545.4,291.3
2023-12-31T02:30:07,2420,42.8014,5.9826,4330,272,186.495,57.118,13.310,36.037,36.617,41.201,4.584,295.8,545.4,291.2
2023-12-31T02:33:08,2420,42.8014,5.9826,4330,272,186.621,57.156,13.309,36.030,36.610,41.201,4.591,295.8,545.4,291.3
2023-12-31T02:36:07,2420,42.8014,5.9826,4330,272,186.410,57.095,13.312,36.041,36.621,41.208,4.587,295.8,545.4,291.2
2023-12-31T02:39:08,2420,42.8014,5.9826,4330,272,186.603,57.151,13.310,36.030,36.611,41.201,4.590,295.8,545.4,291.2
2023-12-31T02:42:08,2420,42.8014,5.9826,4330,272,186.280,57.050,13.309,36.052,36.632,41.216,4.584,295.8,545.4,291.3
2023-12-31T02:45:07,2420,42.8014,5.9826,4330,272,186.488,57.112,13.307,36.040,36.620,41.201,4.582,295.7,545.5,291.3
2023-12-31T02:48:07,2420,42.8014,5.9826,4330,272,186.577,57.139,13.307,36.033,36.613,41.198,4.585,295.8,545.5,291.3
2023-12-31T02:51:07,2420,42.8014,5.9826,4330,272,186.583,57.143,13.308,36.033,36.613,41.203,4.590,295.8,545.4,291.3
2023-12-31T02:54:08,2420,42.8014,5.9826,4330,272,186.444,57.098,13.306,36.043,36.623,41.210,4.587,295.8,545.4,291.3
2023-12-31T02:57:07,2420,42.8014,5.9826,4330,272,186.274,57.047,13.307,36.053,36.633,41.221,4.588,295.9,545.4,291.3
2023-12-31T03:00:07,2420,42.8014,5.9826,4330,272,186.564,57.135,13.306,36.034,36.614,41.203,4.588,295.8,545.4,291.3
2023-12-31T03:03:08,2420,42.8014,5.9826,4330,272,186.277,57.049,13.308,36.053,36.633,41.217,4.584,295.8,545.4,291.3
2023-12-31T03:06:07,2420,42.8014,5.9826,4330,272,186.425,57.093,13.307,36.044,36.624,41.209,4.586,295.8,545.4,291.3
2023-12-31T03:09:08,2420,42.8014,5.9826,4330,272,186.511,57.117,13.305,36.039,36.619,41.206,4.587,295.7,545.4,291.4
2023-12-31T03:12:07,2420,42.8014,5.9826,4330,272,186.445,57.098,13.306,36.043,36.623,41.206,4.583,295.8,545.4,291.3
2023-12-31T03:15:07,2420,42.8014,5.9826,4330,272,186.358,57.073,13.308,36.047,36.627,41.213,4.586,295.7,545.5,291.3
2023-12-31T03:18:08,2420,42.8014,5.9826,4330,272,186.593,57.143,13.306,36.033,36.613,41.200,4.587,295.8,545.4,291.3
2023-12-31T03:21:07,2420,42.8014,5.9826,4330,272,186.275,57.047,13.307,36.053,36.633,41.220,4.587,295.7,545.4,291.3
2023-12-31T03:24:07,2420,42.8014,5.9826,4330,272,186.456,57.106,13.310,36.040,36.620,41.209,4.589,295.7,545.4,291.2
2023-12-31T03:27:08,2420,42.8014,5.9826,4330,272,186.591,57.147,13.309,36.032,36.612,41.200,4.588,295.7,545.4,291.2
2023-12-31T03:30:07,2420,42.8014,5.9826,4330,272,186.528,57.124,13.307,36.037,36.617,41.209,4.591,295.8,545.4,291.3
2023-12-31T03:33:07,2420,42.8014,5.9826,4330,272,186.383,57.083,13.309,36.045,36.625,41.211,4.586,295.7,545.4,291.2
2023-12-31T03:36:08,2420,42.8014,5.9826,4330,272,186.400,57.082,13.305,36.046,36.626,41.213,4.586,295.8,545.5,291.4
2023-12-31T03:39:07,2420,42.8014,5.9826,4330,272,186.419,57.092,13.307,36.044,36.624,41.215,4.591,295.8,545.4,291.3
2023-12-31T03:42:07,2420,42.8014,5.9826,4330,272,186.495,57.113,13.306,36.040,36.620,41.209,4.590,295.7,545.4,291.3
2023-12-31T03:45:08,2420,42.8014,5.9826,4330,272,186.585,57.140,13.306,36.034,36.614,41.202,4.589,295.9,545.5,291.4
2023-12-31T03:48:07,2420,42.8014,5.9826,4330,272,186.458,57.108,13.311,36.039,36.619,41.203,4.584,295.8,545.4,291.2
2023-12-31T03:51:07,2420,42.8014,5.9826,4330,272,186.371,57.080,13.309,36.045,36.625,41.216,4.591,295.8,545.4,291.2
2023-12-31T03:54:08,2420,42.8014,5.9826,4330,272,186.387,57.082,13.307,36.046,36.626,41.221,4.595,295.9,545.4,291.3
2023-12-31T03:57:07,2420,42.8014,5.9826,4330,272,186.670,57.169,13.308,36.027,36.607,41.196,4.588,295.8,545.4,291.3
2023-12-31T04:00:07,2420,42.8014,5.9826,4330,272,186.468,57.107,13.307,36.040,36.620,41.205,4.585,295.7,545.3,291.3
2023-12-31T04:03:07,2420,42.8014,5.9826,4330,272,186.528,57.126,13.308,36.036,36.617,41.201,4.585,295.8,545.3,291.3
2023-12-31T04:06:08,2420,42.8014,5.9826,4330,272,186.632,57.157,13.308,36.030,36.610,41.195,4.585,295.7,545.4,291.3
2023-12-31T04:09:07,2420,42.8014,5.9826,4330,272,186.496,57.115,13.307,36.039,36.619,41.207,4.588,295.7,545.4,291.3
2023-12-31T04:12:08,2420,42.8014,5.9826,4330,272,186.559,57.137,13.309,36.034,36.614,41.202,4.588,295.8,545.4,291.2
2023-12-31T04:15:07,2420,42.8014,5.9826,4330,272,186.450,57.102,13.308,36.041,36.621,41.206,4.584,295.8,545.4,291.3
2023-12-31T04:18:07,2420,42.8014,5.9826,4330,272,186.386,57.081,13.307,36.046,36.626,41.212,4.586,295.7,545.4,291.3
2023-12-31T04:21:08,2420,42.8014,5.9826,4330,272,186.433,57.097,13.308,36.042,36.622,41.215,4.593,295.8,545.4,291.3
2023-12-31T04:24:07,2420,42.8014,5.9826,4330,272,186.475,57.112,13.310,36.039,36.619,41.206,4.587,295.8,545.4,291.2
2023-12-31T04:27:07,2420,42.8014,5.9826,4330,272,186.665,57.166,13.307,36.028,36.608,41.193,4.585,295.7,545.5,291.3
2023-12-31T04:30:08,2420,42.8014,5.9826,4330,272,186.529,57.128,13.309,36.036,36.616,41.200,4.584,295.7,545.3,291.3
2023-12-31T04:33:08,2420,42.8014,5.9826,4330,272,186.600,57.146,13.307,36.032,36.612,41.200,4.587,295.8,545.3,291.3
2023-12-31T04:36:07,2420,42.8014,5.9826,4330,272,186.439,57.106,13.313,36.039,36.619,41.208,4.589,295.8,545.4,291.1
2023-12-31T04:39:08,2420,42.8014,5.9826,4330,272,186.440,57.098,13.307,36.043,36.623,41.208,4.585,295.8,545.4,291.3
2023-12-31T04:42:07,2420,42.8014,5.9826,4330,272,186.326,57.065,13.309,36.049,36.629,41.219,4.589,295.7,545.4,291.3
2023-12-31T04:45:07,2420,42.8014,5.9826,4330,272,186.470,57.108,13.308,36.040,36.620,41.211,4.591,295.8,545.4,291.3
2023-12-31T04:48:08,2420,42.8014,5.9826,4330,272,186.683,57.172,13.307,36.026,36.607,41.194,4.587,295.7,545.3,291.3
2023-12-31T04:51:07,2420,42.8014,5.9826,4330,272,186.353,57.076,13.311,36.046,36.626,41.216,4.590,295.7,545.4,291.2
2023-12-31T04:54:08,2420,42.8014,5.9826,4330,272,186.611,57.150,13.307,36.031,36.611,41.198,4.587,295.7,545.4,291.3
2023-12-31T04:57:07,2420,42.8014,5.9826,4330,272,186.864,57.231,13.310,36.013,36.593,41.175,4.582,295.7,545.4,291.2
2023-12-31T05:00:08,2420,42.8014,5.9826,4330,272,186.568,57.138,13.308,36.034,36.614,41.200,4.586,295.8,545.3,291.3
2023-12-31T05:03:07,2420,42.8014,5.9826,4330,272,186.365,57.077,13.309,36.046,36.626,41.211,4.585,295.8,545.4,291.3
2023-12-31T05:06:08,2420,42.8014,5.9826,4330,272,186.539,57.129,13.308,36.035,36.615,41.208,4.593,295.7,545.3,291.3
2023-12-31T05:09:07,2420,42.8014,5.9826,4330,272,186.433,57.098,13.309,36.042,36.622,41.209,4.586,295.7,545.4,291.3
2023-12-31T05:12:07,2420,42.8014,5.9826,4330,272,186.412,57.092,13.309,36.044,36.624,41.210,4.586,295.8,545.4,291.3
2023-12-31T05:15:08,2420,42.8014,5.9826,4330,272,186.459,57.107,13.309,36.040,36.620,41.207,4.587,295.8,545.3,291.2
2023-12-31T05:18:07,2420,42.8014,5.9826,4330,272,186.449,57.102,13.308,36.042,36.622,41.208,4.586,295.7,545.4,291.3
2023-12-31T05:21:07,2420,42.8014,5.9826,4330,272,186.460,57.107,13.310,36.040,36.620,41.208,4.588,295.7,545.3,291.2
2023-12-31T05:24:08,2420,42.8014,5.9826,4330,272,186.480,57.117,13.313,36.038,36.618,41.203,4.585,295.7,545.4,291.1
2023-12-31T05:27:07,2420,42.8014,5.9826,4330,272,186.513,57.125,13.311,36.036,36.616,41.209,4.593,295.8,545.4,291.2
2023-12-31T05:30:07,2420,42.8014,5.9826,4330,272,186.647,57.165,13.310,36.028,36.608,41.197,4.589,295.7,545.4,291.2
2023-12-31T05:33:07,2420,42.8014,5.9826,4330,272,186.236,57.041,13.312,36.053,36.633,41.218,4.585,295.7,545.4,291.2
2023-12-31T05:36:07,2420,42.8014,5.9826,4330,272,186.239,57.040,13.310,36.055,36.634,41.217,4.582,295.7,545.3,291.2
2023-12-31T05:39:08,2420,42.8014,5.9826,4330,272,186.726,57.187,13.309,36.023,36.603,41.195,4.592,295.7,545.3,291.3
2023-12-31T05:42:07,2420,42.8014,5.9826,4330,272,186.748,57.194,13.309,36.021,36.601,41.191,4.590,295.8,545.4,291.3
2023-12-31T05:45:07,2420,42.8014,5.9826,4330,272,186.474,57.108,13.307,36.041,36.621,41.205,4.585,295.7,545.4,291.3
2023-12-31T05:48:08,2420,42.8014,5.9826,4330,272,186.415,57.099,13.314,36.041,36.621,41.206,4.585,295.7,545.3,291.1
2023-12-31T05:51:07,2420,42.8014,5.9826,4330,272,186.622,57.157,13.310,36.029,36.609,41.195,4.586,295.8,545.5,291.2
2023-12-31T05:54:07,2420,42.8014,5.9826,4330,272,186.521,57.123,13.307,36.037,36.617,41.206,4.589,295.7,545.4,291.3
2023-12-31T05:57:07,2420,42.8014,5.9826,4330,272,186.580,57.143,13.309,36.032,36.612,41.196,4.584,295.8,545.4,291.3
2023-12-31T06:00:08,2420,42.8014,5.9826,4330,272,186.433,57.101,13.311,36.041,36.621,41.209,4.588,295.8,545.3,291.2
2023-12-31T06:03:07,2420,42.8014,5.9826,4330,272,186.370,57.081,13.310,36.045,36.625,41.211,4.585,295.7,545.3,291.2
2023-12-31T06:06:08,2420,42.8014,5.9826,4330,272,186.386,57.083,13.309,36.045,36.625,41.211,4.586,295.7,545.4,291.3
2023-12-31T06:09:07,2420,42.8014,5.9826,4330,272,186.566,57.142,13.312,36.032,36.612,41.203,4.591,295.8,545.4,291.2
2023-12-31T06:12:08,2420,42.8014,5.9826,4330,272,186.605,57.156,13.314,36.029,36.609,41.196,4.587,295.7,545.4,291.1
2023-12-31T06:15:07,2420,42.8014,5.9826,4330,272,186.495,57.120,13.311,36.036,36.617,41.197,4.581,295.7,545.4,291.2
2023-12-31T06:18:07,2420,42.8014,5.9826,4330,272,186.366,57.080,13.311,36.045,36.625,41.214,4.589,295.8,545.4,291.2
2023-12-31T06:21:08,2420,42.8014,5.9826,4330,272,186.551,57.137,13.311,36.033,36.614,41.201,4.588,295.7,545.3,291.2
2023-12-31T06:24:07,2420,42.8014,5.9826,4330,272,186.464,57.110,13.311,36.039,36.619,41.210,4.590,295.7,545.3,291.2
2023-12-31T06:27:08,2420,42.8014,5.9826,4330,272,186.181,57.023,13.311,36.058,36.638,41.222,4.584,295.7,545.4,291.2
2023-12-31T06:30:07,2420,42.8014,5.9826,4330,272,186.533,57.130,13.310,36.035,36.615,41.203,4.588,295.8,545.4,291.2
2023-12-31T06:33:08,2420,42.8014,5.9826,4330,272,186.228,57.038,13.311,36.054,36.634,41.211,4.577,295.8,545.4,291.2
2023-12-31T06:36:07,2420,42.8014,5.9826,4330,272,186.675,57.172,13.309,36.026,36.606,41.195,4.588,295.7,545.4,291.2
2023-12-31T06:39:08,2420,42.8014,5.9826,4330,272,186.782,57.205,13.309,36.019,36.600,41.193,4.594,295.7,545.4,291.2
2023-12-31T06:42:07,2420,42.8014,5.9826,4330,272,186.659,57.167,13.309,36.027,36.607,41.196,4.589,295.8,545.3,291.3
2023-12-31T06:45:08,2420,42.8014,5.9826,4330,272,186.617,57.152,13.307,36.031,36.611,41.197,4.586,295.8,545.4,291.3
2023-12-31T06:48:07,2420,42.8014,5.9826,4330,272,186.281,57.052,13.310,36.051,36.631,41.216,4.584,295.8,545.3,291.2
2023-12-31T06:51:07,2420,42.8014,5.9826,4330,272,186.617,57.155,13.309,36.030,36.610,41.195,4.585,295.8,545.4,291.2
2023-12-31T06:54:08,2420,42.8014,5.9826,4330,272,186.520,57.127,13.311,36.036,36.616,41.210,4.595,295.8,545.4,291.2
2023-12-31T06:57:07,2420,42.8014,5.9826,4330,272,186.577,57.146,13.312,36.031,36.611,41.197,4.586,295.7,545.3,291.1
2023-12-31T07:00:07,2420,42.8014,5.9826,4330,272,186.507,57.125,13.313,36.036,36.616,41.202,4.586,295.7,545.3,291.1
2023-12-31T07:03:07,2420,42.8014,5.9826,4330,272,186.530,57.129,13.310,36.035,36.615,41.200,4.585,295.7,545.3,291.2
2023-12-31T07:06:07,2420,42.8014,5.9826,4330,272,186.521,57.126,13.310,36.036,36.616,41.202,4.587,295.7,545.4,291.2
2023-12-31T07:09:08,2420,42.8014,5.9826,4330,272,186.262,57.046,13.309,36.053,36.633,41.225,4.591,295.7,545.4,291.2
2023-12-31T07:12:07,2420,42.8014,5.9826,4330,272,186.451,57.101,13.307,36.042,36.622,41.210,4.588,295.8,545.4,291.3
2023-12-31T07:15:07,2420,42.8014,5.9826,4330,272,186.279,57.054,13.312,36.050,36.630,41.216,4.585,295.8,545.3,291.2
2023-12-31T07:18:08,2420,42.8014,5.9826,4330,272,186.549,57.137,13.311,36.033,36.613,41.202,4.589,295.8,545.3,291.2
2023-12-31T07:21:07,2420,42.8014,5.9826,4330,272,186.700,57.181,13.310,36.024,36.604,41.192,4.588,295.7,545.3,291.2
2023-12-31T07:24:07,2420,42.8014,5.9826,4330,272,186.589,57.153,13.314,36.029,36.609,41.198,4.589,295.7,545.3,291.1
2023-12-31T07:27:08,2420,42.8014,5.9826,4330,272,186.417,57.092,13.309,36.043,36.623,41.211,4.588,295.8,545.4,291.3
2023-12-31T07:30:07,2420,42.8014,5.9826,4330,272,186.410,57.098,13.314,36.041,36.621,41.205,4.583,295.8,545.4,291.1
2023-12-31T07:33:07,2420,42.8014,5.9826,4330,272,186.469,57.110,13.310,36.039,36.619,41.206,4.587,295.8,545.3,291.2
2023-12-31T07:36:07,2420,42.8014,5.9826,4330,272,186.588,57.148,13.311,36.031,36.611,41.196,4.585,295.7,545.4,291.2
2023-12-31T07:39:08,2420,42.8014,5.9826,4330,272,186.396,57.092,13.313,36.043,36.623,41.209,4.586,295.8,545.4,291.1
2023-12-31T07:42:07,2420,42.8014,5.9826,4330,272,186.722,57.190,13.312,36.022,36.602,41.194,4.592,295.8,545.4,291.2
2023-12-31T07:45:07,2420,42.8014,5.9826,4330,272,186.375,57.083,13.311,36.045,36.625,41.212,4.587,295.7,545.3,291.2
2023-12-31T07:48:08,2420,42.8014,5.9826,4330,272,186.594,57.154,13.314,36.029,36.609,41.199,4.590,295.8,545.4,291.1
2023-12-31T07:51:07,2420,42.8014,5.9826,4330,272,186.546,57.134,13.310,36.034,36.614,41.207,4.592,295.7,545.4,291.2
2023-12-31T07:54:07,2420,42.8014,5.9826,4330,272,186.382,57.085,13.311,36.044,36.624,41.208,4.584,295.7,545.4,291.2
2023-12-31T07:57:08,2420,42.8014,5.9826,4330,272,186.382,57.085,13.311,36.044,36.624,41.205,4.581,295.8,545.4,291.2
2023-12-31T08:00:07,2420,42.8014,5.9826,4330,272,186.446,57.103,13.310,36.041,36.621,41.208,4.588,295.7,545.3,291.2
2023-12-31T08:03:08,2420,42.8014,5.9826,4330,272,186.534,57.127,13.307,36.037,36.617,41.204,4.587,295.7,545.4,291.3
2023-12-31T08:06:07,2420,42.8014,5.9826,4330,272,186.502,57.118,13.308,36.038,36.618,41.206,4.588,295.7,545.4,291.3
2023-12-31T08:09:08,2420,42.8014,5.9826,4330,272,186.796,57.209,13.309,36.018,36.598,41.189,4.590,295.8,545.4,291.3
2023-12-31T08:12:07,2420,42.8014,5.9826,4330,272,186.523,57.129,13.312,36.035,36.615,41.204,4.589,295.8,545.4,291.2
2023-12-31T08:15:08,2420,42.8014,5.9826,4330,272,186.536,57.131,13.310,36.035,36.615,41.206,4.591,295.7,545.4,291.2
2023-12-31T08:18:07,2420,42.8014,5.9826,4330,272,186.494,57.119,13.311,36.037,36.617,41.205,4.588,295.7,545.4,291.2
2023-12-31T08:21:07,2420,42.8014,5.9826,4330,272,186.667,57.168,13.308,36.028,36.608,41.198,4.590,295.7,545.4,291.3
2023-12-31T08:24:08,2420,42.8014,5.9826,4330,272,186.408,57.095,13.313,36.042,36.622,41.203,4.582,295.6,545.4,291.1
2023-12-31T08:27:07,2420,42.8014,5.9826,4330,272,186.627,57.159,13.310,36.029,36.609,41.196,4.587,295.7,545.4,291.2
2023-12-31T08:30:07,2420,42.8014,5.9826,4330,272,186.384,57.085,13.311,36.045,36.625,41.215,4.590,295.7,545.5,291.2
2023-12-31T08:33:07,2420,42.8014,5.9826,4330,272,186.253,57.043,13.309,36.053,36.633,41.213,4.580,295.7,545.3,291.2
2023-12-31T08:36:07,2420,42.8014,5.9826,4330,272,186.769,57.207,13.314,36.018,36.598,41.188,4.590,295.8,545.3,291.1
2023-12-31T08:39:08,2420,42.8014,5.9826,4330,272,186.406,57.091,13.310,36.043,36.623,41.212,4.589,295.8,545.4,291.2
2023-12-31T08:42:07,2420,42.8014,5.9826,4330,272,186.483,57.115,13.310,36.038,36.618,41.205,4.587,295.7,545.4,291.2
2023-12-31T08:45:08,2420,42.8014,5.9826,4330,272,186.556,57.137,13.310,36.033,36.614,41.200,4.587,295.7,545.3,291.2
2023-12-31T08:48:07,2420,42.8014,5.9826,4330,272,186.526,57.132,13.313,36.034,36.614,41.200,4.586,295.8,545.4,291.1
2023-12-31T08:51:07,2420,42.8014,5.9826,4330,272,186.592,57.153,13.314,36.030,36.610,41.198,4.588,295.7,545.3,291.1
2023-12-31T08:54:08,2420,42.8014,5.9826,4330,272,186.633,57.165,13.314,36.027,36.607,41.203,4.596,295.7,545.3,291.1
2023-12-31T08:57:07,2420,42.8014,5.9826,4330,272,186.269,57.050,13.311,36.052,36.632,41.216,4.584,295.7,545.3,291.2
2023-12-31T09:00:07,2420,42.8014,5.9826,4330,272,186.545,57.138,13.313,36.033,36.613,41.201,4.588,295.7,545.4,291.1
2023-12-31T09:03:07,2420,42.8014,5.9826,4330,272,186.530,57.135,13.314,36.034,36.614,41.202,4.588,295.7,545.3,291.1
2023-12-31T09:06:07,2420,42.8014,5.9826,4330,272,186.435,57.098,13.309,36.042,36.622,41.210,4.588,295.8,545.3,291.3
2023-12-31T09:09:08,2420,42.8014,5.9826,4330,272,186.447,57.111,13.316,36.038,36.618,41.205,4.587,295.8,545.4,291.0
2023-12-31T09:12:07,2420,42.8014,5.9826,4330,272,186.609,57.155,13.312,36.030,36.610,41.196,4.587,295.8,545.4,291.2
2023-12-31T09:15:07,2420,42.8014,5.9826,4330,272,186.439,57.107,13.314,36.039,36.619,41.207,4.589,295.6,545.4,291.1
2023-12-31T09:18:07,2420,42.8014,5.9826,4330,272,186.597,57.153,13.313,36.029,36.609,41.194,4.585,295.8,545.4,291.1
2023-12-31T09:21:08,2420,42.8014,5.9826,4330,272,186.365,57.085,13.315,36.043,36.623,41.209,4.585,295.8,545.3,291.1
2023-12-31T09:24:07,2420,42.8014,5.9826,4330,272,186.316,57.070,13.315,36.047,36.627,41.216,4.590,295.8,545.3,291.1
2023-12-31T09:27:07,2420,42.8014,5.9826,4330,272,186.533,57.139,13.317,36.031,36.611,41.200,4.589,295.8,545.3,291.0
2023-12-31T09:30:08,2420,42.8014,5.9826,4330,272,186.404,57.103,13.320,36.039,36.619,41.203,4.585,295.8,545.4,290.9
2023-12-31T09:33:08,2420,42.8014,5.9826,4330,272,186.482,57.121,13.315,36.036,36.616,41.205,4.589,295.8,545.3,291.1
2023-12-31T09:36:08,2420,42.8014,5.9826,4330,272,186.374,57.088,13.316,36.042,36.622,41.214,4.592,295.8,545.4,291.0
2023-12-31T09:39:07,2420,42.8014,5.9826,4330,272,186.184,57.030,13.316,36.055,36.635,41.219,4.584,295.8,545.3,291.0
2023-12-31T09:42:08,2420,42.8014,5.9826,4330,272,186.537,57.136,13.314,36.033,36.613,41.200,4.587,295.8,545.3,291.1
2023-12-31T09:45:07,2420,42.8014,5.9826,4330,272,186.469,57.119,13.317,36.036,36.616,41.204,4.588,295.8,545.3,291.0
2023-12-31T09:48:07,2420,42.8014,5.9826,4330,272,186.569,57.149,13.316,36.030,36.610,41.198,4.588,295.8,545.3,291.0
2023-12-31T09:51:08,2420,42.8014,5.9826,4330,272,186.308,57.063,13.311,36.049,36.629,41.216,4.587,295.8,545.4,291.2
2023-12-31T09:54:07,2420,42.8014,5.9826,4330,272,186.367,57.081,13.312,36.045,36.625,41.210,4.585,295.8,545.4,291.2
2023-12-31T09:57:07,2420,42.8014,5.9826,4330,272,186.348,57.078,13.314,36.046,36.626,41.209,4.583,295.8,545.3,291.1
2023-12-31T10:00:08,2420,42.8014,5.9826,4330,272,186.436,57.107,13.315,36.039,36.619,41.208,4.589,295.8,545.4,291.0